Location: Brede
(50.9167°N, 0.6000°E)
Time: 23:21:56
(UTC+00:00)

S-56A Canister/Altair - Visible Passes

Search period start: 25 November 2020 00:00
Search period end: 05 December 2020 00:00
Orbit: 633 x 2499 km, 38.9° (Epoch: 25 November)

Date Brightness Start Highest point End Pass type
(mag) Time Alt. Az. Time Alt. Az. Time Alt. Az.
25 Nov 10.5 19:30:10 10° SSW 19:34:04 17° S 19:34:04 17° S visible
26 Nov 10.3 18:57:12 10° S 19:03:20 17° SSE 19:03:20 17° SSE visible
26 Nov 10.8 20:59:25 10° SW 21:00:46 14° SW 21:00:46 14° SW visible
27 Nov 10.3 18:24:15 10° S 18:30:34 17° SSE 18:32:34 16° SE visible
27 Nov 10.4 20:26:07 10° SW 20:30:00 21° SSW 20:30:00 21° SSW visible
28 Nov 10.5 17:51:24 10° S 17:57:42 16° SSE 18:01:47 12° ESE visible
28 Nov 10.1 19:52:47 10° SW 19:59:13 27° S 19:59:13 27° S visible
29 Nov 10.6 17:18:38 10° S 17:24:48 15° SSE 17:30:04 10° ESE visible
29 Nov 9.9 19:19:26 10° SW 19:28:23 29° SSE 19:28:23 29° SSE visible
29 Nov 10.8 21:23:59 10° WSW 21:25:49 15° WSW 21:25:49 15° WSW visible
30 Nov 10.8 16:46:01 10° S 16:51:52 15° SE 16:56:58 10° ESE visible
30 Nov 9.9 18:46:07 10° SW 18:55:42 29° SSE 18:57:33 27° SE visible
30 Nov 10.4 20:50:31 10° WSW 20:54:58 24° SW 20:54:58 24° SW visible
01 Dec 10.0 18:12:48 10° SSW 18:22:45 29° SSE 18:26:40 22° SE visible
01 Dec 10.0 20:17:00 10° WSW 20:24:06 32° SSW 20:24:06 32° SSW visible
02 Dec 10.3 17:39:31 10° SSW 17:49:46 28° SSE 17:55:47 16° ESE visible
02 Dec 9.7 19:43:29 10° WSW 19:53:12 38° S 19:53:12 38° S visible
02 Dec 11.0 21:49:11 10° WSW 21:50:38 14° WSW 21:50:38 14° WSW visible
03 Dec 10.6 17:06:18 10° SSW 17:16:44 27° SSE 17:24:52 10° ESE visible
03 Dec 9.6 19:09:56 10° SW 19:20:54 39° S 19:22:18 37° SSE visible
03 Dec 10.6 21:15:37 10° WSW 21:19:43 22° WSW 21:19:43 22° WSW visible
04 Dec 10.7 16:33:10 10° SSW 16:43:40 26° SSE 16:52:06 10° E visible
04 Dec 9.8 18:36:24 10° SW 18:47:55 39° S 18:51:22 31° SE visible
04 Dec 10.2 20:42:00 10° WSW 20:48:48 31° SW 20:48:48 31° SW visible
